When you browse on this site, cookies collect data to enhance your experience and personalize the content and advertising you see.
Visit our Privacy Policy to learn more. By continuing to use the site, you agree to this use of cookies and data.
  • In Hungary
  • List of Countries
  • For 7 days
  • Water Temperature
  • Weather Map
  • News
  • Weather Widgets
  • user-avatar
    Login

    Hourly Weather Kysna

    Today, 26 August, Monday

    Time Temperature Precipitation Wind Pressure Humidity
    00:00 +10°C° 0 mm 4 mps 753 mmHg 95%
    01:00 +8°C° 0 mm 4 mps 753 mmHg 95%
    02:00 +8°C° 0 mm 4 mps 754 mmHg 96%
    03:00 +8°C° 0 mm 3 mps 754 mmHg 95%
    04:00 +7°C° 0 mm 4 mps 755 mmHg 95%
    05:00 +7°C° 0 mm 4 mps 755 mmHg 95%
    06:00 +7°C° 0 mm 4 mps 755 mmHg 94%
    07:00 +10°C° 0 mm 4 mps 755 mmHg 88%
    08:00 +11°C° 0 mm 4 mps 755 mmHg 82%
    09:00 +13°C° 0 mm 4 mps 755 mmHg 75%
    10:00 +14°C° 0 mm 4 mps 755 mmHg 72%
    11:00 +14°C° 0 mm 4 mps 755 mmHg 68%
    12:00 +15°C° 0 mm 4 mps 755 mmHg 64%
    13:00 +15°C° 0 mm 4 mps 755 mmHg 63%
    14:00 +15°C° 0 mm 4 mps 755 mmHg 63%
    15:00 +15°C° 0 mm 4 mps 754 mmHg 63%
    16:00 +16°C° 0 mm 3 mps 754 mmHg 67%
    17:00 +14°C° 0 mm 3 mps 753 mmHg 72%
    18:00 +14°C° 0 mm 2 mps 753 mmHg 76%
    19:00 +13°C° 0 mm 2 mps 753 mmHg 76%
    20:00 +13°C° 0 mm 2 mps 752 mmHg 76%
    21:00 +12°C° 0 mm 2 mps 752 mmHg 76%
    22:00 +11°C° 0 mm 3 mps 751 mmHg 77%
    23:00 +11°C° 0 mm 3 mps 751 mmHg 79%

    Tomorrow, 27 August, Tuesday

    Time Temperature Precipitation Wind Pressure Humidity
    00:00 +11°C° 0 mm 4 mps 750 mmHg 80%
    01:00 +12°C° 0 mm 4 mps 749 mmHg 81%
    02:00 +12°C° 0 mm 5 mps 749 mmHg 82%
    03:00 +11°C° 0 mm 6 mps 748 mmHg 82%
    04:00 +11°C° 0.2 mm 6 mps 747 mmHg 85%
    05:00 +11°C° 0.2 mm 6 mps 746 mmHg 88%
    06:00 +11°C° 0.2 mm 7 mps 745 mmHg 91%
    07:00 +11°C° 1.2 mm 7 mps 745 mmHg 92%
    08:00 +11°C° 1.2 mm 7 mps 744 mmHg 94%
    09:00 +12°C° 1.2 mm 7 mps 744 mmHg 95%
    10:00 +13°C° 0.4 mm 6 mps 744 mmHg 90%
    11:00 +14°C° 0.4 mm 5 mps 743 mmHg 86%
    12:00 +15°C° 0.4 mm 5 mps 743 mmHg 82%
    13:00 +15°C° 0.4 mm 5 mps 743 mmHg 79%
    14:00 +16°C° 0.4 mm 5 mps 743 mmHg 77%
    15:00 +16°C° 0.4 mm 5 mps 743 mmHg 75%
    16:00 +15°C° 0.3 mm 5 mps 743 mmHg 79%
    17:00 +14°C° 0.3 mm 5 mps 743 mmHg 83%
    18:00 +13°C° 0.3 mm 4 mps 742 mmHg 88%
    19:00 +12°C° 0.1 mm 4 mps 742 mmHg 90%
    20:00 +11°C° 0.1 mm 4 mps 742 mmHg 92%
    21:00 +10°C° 0.1 mm 4 mps 742 mmHg 94%
    22:00 +9°C° 0.2 mm 5 mps 742 mmHg 93%
    23:00 +9°C° 0.2 mm 5 mps 742 mmHg 91%

    Day after tomorrow, 28 August, Wednesday

    Time Temperature Precipitation Wind Pressure Humidity
    00:00 +9°C° 0.2 mm 6 mps 742 mmHg 90%
    01:00 +8°C° 0.1 mm 6 mps 742 mmHg 90%
    02:00 +8°C° 0.1 mm 6 mps 743 mmHg 91%
    03:00 +7°C° 0.1 mm 6 mps 743 mmHg 91%
    04:00 +7°C° 0.1 mm 6 mps 743 mmHg 91%
    05:00 +7°C° 0.1 mm 6 mps 743 mmHg 91%
    06:00 +7°C° 0.1 mm 6 mps 743 mmHg 91%
    07:00 +7°C° 0 mm 6 mps 743 mmHg 90%
    08:00 +8°C° 0 mm 6 mps 744 mmHg 90%
    09:00 +8°C° 0 mm 6 mps 744 mmHg 89%
    10:00 +8°C° 0.1 mm 7 mps 744 mmHg 87%
    11:00 +8°C° 0.1 mm 7 mps 745 mmHg 86%
    12:00 +7°C° 0.1 mm 8 mps 745 mmHg 84%
    13:00 +7°C° 0.1 mm 8 mps 745 mmHg 84%
    14:00 +6°C° 0.1 mm 9 mps 746 mmHg 84%
    15:00 +6°C° 0.1 mm 9 mps 746 mmHg 83%
    16:00 +6°C° 0 mm 9 mps 747 mmHg 81%
    17:00 +6°C° 0 mm 9 mps 747 mmHg 80%
    18:00 +6°C° 0 mm 9 mps 748 mmHg 78%
    19:00 +6°C° 0 mm 9 mps 748 mmHg 77%
    20:00 +6°C° 0 mm 9 mps 748 mmHg 76%
    21:00 +6°C° 0 mm 8 mps 749 mmHg 75%
    22:00 +5°C° 0 mm 8 mps 749 mmHg 77%
    23:00 +5°C° 0 mm 8 mps 749 mmHg 78%

    29 August, Thursday

    Time Temperature Precipitation Wind Pressure Humidity
    00:00 +5°C° 0 mm 8 mps 749 mmHg 79%
    01:00 +4°C° 0 mm 7 mps 749 mmHg 80%
    02:00 +4°C° 0 mm 7 mps 749 mmHg 81%
    03:00 +4°C° 0 mm 7 mps 750 mmHg 82%
    04:00 +4°C° 0 mm 7 mps 750 mmHg 81%
    05:00 +4°C° 0 mm 7 mps 750 mmHg 80%
    06:00 +4°C° 0 mm 7 mps 750 mmHg 79%
    07:00 +5°C° 0 mm 8 mps 750 mmHg 75%
    08:00 +6°C° 0 mm 8 mps 751 mmHg 71%
    09:00 +7°C° 0 mm 8 mps 751 mmHg 66%
    10:00 +9°C° 0 mm 8 mps 751 mmHg 64%
    11:00 +10°C° 0 mm 8 mps 751 mmHg 62%
    12:00 +11°C° 0 mm 7 mps 751 mmHg 60%
    13:00 +11°C° 0 mm 7 mps 751 mmHg 60%
    14:00 +11°C° 0 mm 7 mps 751 mmHg 59%
    15:00 +12°C° 0 mm 7 mps 751 mmHg 59%
    16:00 +11°C° 0 mm 6 mps 751 mmHg 63%
    17:00 +9°C° 0 mm 5 mps 751 mmHg 68%
    18:00 +8°C° 0 mm 4 mps 751 mmHg 72%
    19:00 +8°C° 0 mm 3 mps 751 mmHg 75%
    20:00 +7°C° 0 mm 3 mps 751 mmHg 79%
    21:00 +5°C° 0 mm 3 mps 751 mmHg 82%
    22:00 +4°C° 0 mm 3 mps 751 mmHg 83%
    23:00 +4°C° 0 mm 3 mps 751 mmHg 85%

    30 August, Friday

    Time Temperature Precipitation Wind Pressure Humidity
    00:00 +3°C° 0 mm 3 mps 750 mmHg 87%
    01:00 +3°C° 0 mm 3 mps 750 mmHg 86%
    02:00 +3°C° 0 mm 3 mps 750 mmHg 86%
    03:00 +3°C° 0 mm 3 mps 750 mmHg 86%
    04:00 +3°C° 0 mm 3 mps 750 mmHg 86%
    05:00 +4°C° 0 mm 3 mps 750 mmHg 86%
    06:00 +5°C° 0 mm 3 mps 750 mmHg 85%
    07:00 +6°C° 0 mm 4 mps 751 mmHg 81%
    08:00 +7°C° 0 mm 4 mps 751 mmHg 78%
    09:00 +8°C° 0 mm 5 mps 751 mmHg 74%
    10:00 +9°C° 0 mm 5 mps 751 mmHg 69%
    11:00 +10°C° 0 mm 5 mps 751 mmHg 64%
    12:00 +12°C° 0 mm 5 mps 751 mmHg 60%
    13:00 +12°C° 0 mm 5 mps 751 mmHg 59%
    14:00 +12°C° 0 mm 5 mps 751 mmHg 58%
    15:00 +12°C° 0 mm 5 mps 751 mmHg 57%
    16:00 +11°C° 0 mm 4 mps 751 mmHg 63%
    17:00 +10°C° 0 mm 4 mps 751 mmHg 68%
    18:00 +9°C° 0 mm 3 mps 752 mmHg 73%
    19:00 +8°C° 0 mm 3 mps 752 mmHg 77%
    20:00 +7°C° 0 mm 3 mps 752 mmHg 82%
    21:00 +5°C° 0 mm 3 mps 752 mmHg 86%
    22:00 +4°C° 0 mm 3 mps 752 mmHg 88%
    23:00 +4°C° 0 mm 3 mps 752 mmHg 89%

    31 August, Saturday

    Time Temperature Precipitation Wind Pressure Humidity
    00:00 +3°C° 0 mm 3 mps 751 mmHg 91%
    01:00 +4°C° 0 mm 3 mps 751 mmHg 87%
    02:00 +4°C° 0 mm 3 mps 751 mmHg 83%
    03:00 +4°C° 0 mm 3 mps 751 mmHg 79%
    04:00 +5°C° 0 mm 3 mps 751 mmHg 77%
    05:00 +5°C° 0 mm 3 mps 751 mmHg 75%
    06:00 +7°C° 0 mm 3 mps 751 mmHg 73%
    07:00 +6°C° 0 mm 4 mps 751 mmHg 71%
    08:00 +7°C° 0 mm 4 mps 751 mmHg 68%
    09:00 +7°C° 0 mm 4 mps 751 mmHg 65%
    10:00 +10°C° 0 mm 4 mps 751 mmHg 63%
    11:00 +11°C° 0 mm 4 mps 751 mmHg 60%
    12:00 +12°C° 0 mm 4 mps 751 mmHg 58%
    13:00 +12°C° 0 mm 4 mps 751 mmHg 59%
    14:00 +12°C° 0 mm 4 mps 750 mmHg 61%
    15:00 +12°C° 0 mm 3 mps 750 mmHg 62%
    16:00 +12°C° 0 mm 3 mps 750 mmHg 65%
    17:00 +12°C° 0 mm 2 mps 750 mmHg 68%
    18:00 +10°C° 0 mm 2 mps 750 mmHg 72%
    19:00 +10°C° 0 mm 2 mps 750 mmHg 74%
    20:00 +9°C° 0 mm 2 mps 750 mmHg 76%
    21:00 +8°C° 0 mm 3 mps 750 mmHg 78%
    22:00 +7°C° 0 mm 3 mps 750 mmHg 80%
    23:00 +7°C° 0 mm 2 mps 749 mmHg 81%
    Show more